Fort Worth NAS, TX

11:06 AM CDT on May 24, 2017 (GMT -0500)
Fort Worth Naval Air Station Jrb

Weather History for KNFW - January, 2013

Change the Weather History Date:

Wednesday, January 9, 2013

  Actual Average Record
Temperature  
Mean Temperature 52 °F -  
Max Temperature 57 °F 55 °F 70 °F (2017)
Min Temperature 48 °F 36 °F 34 °F (2015)
Degree Days  
Heating Degree Days 12    
Growing Degree Days 2 (Base 50)    
Moisture  
Dew Point 50 °F    
Average Humidity 88    
Maximum Humidity 94    
Minimum Humidity 83    
Precipitation  
Precipitation 1.18 in - - ()
Sea Level Pressure  
Sea Level Pressure 30.07 in    
Wind  
Wind Speed 8 mph (NE)    
Max Wind Speed 17 mph    
Max Gust Speed 25 mph    
Visibility 7 miles    
Events Rain    
Averages and records for this station are not official NWS values.
T = Trace of Precipitation, MM = Missing Value Source: NWS Daily Summary

Daily Weather History Graph

Daily Weather History Graph

Search for Another Location

Airport or City:

Trip Planner

Search our weather history database for the weather conditions in past years. The results will help you decide how hot, cold, wet, or windy it might be!

Date:

Astronomy

Jan. 09, 2013 Rise Set
Actual Time 7:32 AM CST 5:41 PM CST
Civil Twilight 7:06 AM CST 6:08 PM CST
Nautical Twilight 6:35 AM CST 6:38 PM CST
Astronomical Twilight 6:05 AM CST 7:08 PM CST
Moon 5:13 AM CST (1/9) 3:44 PM CST (1/9)
Length of Visible Light 11h 02m
Length of Day
10h 08m
Waning Crescent, 6% of the Moon is Illuminated
Jan 9
Waning Crescent
Jan 11
New
Jan 18
First Quarter
Jan 26
Full
Feb 3
Last Quarter

Hourly Weather History & Observations

Time (CST) Temp. Dew Point Humidity Pressure Visibility Wind Dir Wind Speed Gust Speed Precip Events Conditions
12:34 AM 48.2 °F 44.6 °F 87% 30.14 in 4.0 mi NW 5.8 mph - 0.14 in Rain Rain
12:52 AM 48.0 °F 44.1 °F 86% 30.09 in 4.0 mi NW 5.8 mph - 0.18 in Rain Rain
1:52 AM 48.0 °F 44.1 °F 86% 30.09 in 6.0 mi NW 8.1 mph - 0.14 in Rain Light Rain
2:19 AM 48.2 °F 44.6 °F 87% 30.11 in 5.0 mi NNW 4.6 mph - 0.06 in Rain Rain
2:29 AM 48.2 °F 44.6 °F 87% 30.11 in 4.0 mi Calm Calm - 0.09 in Rain Rain
2:52 AM 48.0 °F 45.0 °F 89% 30.05 in 6.0 mi NNW 6.9 mph - 0.12 in Rain Light Rain
3:03 AM 48.2 °F 44.6 °F 87% 30.12 in 7.0 mi North 5.8 mph - 0.01 in Rain Light Rain
3:11 AM 48.2 °F 44.6 °F 87% 30.13 in 7.0 mi Calm Calm - 0.01 in Rain Light Rain
3:52 AM 48.0 °F 45.0 °F 89% 30.10 in 4.0 mi NW 9.2 mph - 0.05 in Rain Rain
4:52 AM 48.9 °F 46.0 °F 90% 30.09 in 7.0 mi NNW 5.8 mph - 0.08 in Rain Light Rain
5:52 AM 50.0 °F 46.0 °F 86% 30.11 in 5.0 mi North 6.9 mph - 0.07 in Rain Rain
5:59 AM 50.0 °F 46.4 °F 87% 30.15 in 5.0 mi NNW 5.8 mph - 0.03 in Rain Rain
6:52 AM 51.1 °F 46.0 °F 83% 30.09 in 7.0 mi NNE 13.8 mph - 0.12 in Rain Rain
7:39 AM 51.8 °F 48.2 °F 88% 30.15 in 7.0 mi NNE 12.7 mph - 0.06 in Rain Rain
7:52 AM 51.1 °F 48.0 °F 89% 30.10 in 6.0 mi NE 13.8 mph - 0.09 in Rain Light Rain
8:52 AM 52.0 °F 48.0 °F 86% 30.12 in 7.0 mi NNE 11.5 mph - 0.10 in Rain Light Rain
9:10 AM 51.8 °F 48.2 °F 88% 30.17 in 9.0 mi NE 10.4 mph 21.9 mph 0.01 in Rain Light Rain
9:52 AM 53.1 °F 50.0 °F 89% 30.12 in 10.0 mi NE 12.7 mph - 0.03 in Rain Light Rain
10:52 AM 53.1 °F 50.0 °F 89% 30.11 in 5.0 mi NE 11.5 mph - 0.04 in Rain Light Rain
11:52 AM 54.0 °F 51.1 °F 90% 30.04 in 10.0 mi NE 17.3 mph 25.3 mph 0.02 in Rain Light Rain
12:19 PM 55.4 °F 51.8 °F 88% 30.10 in 10.0 mi NE 12.7 mph - 0.00 in   Overcast
12:52 PM 55.0 °F 52.0 °F 89% 30.03 in 8.0 mi ENE 12.7 mph 20.7 mph 0.00 in Rain Light Rain
1:36 PM 55.4 °F 51.8 °F 88% 30.06 in 10.0 mi ENE 10.4 mph - 0.00 in   Overcast
1:52 PM 55.0 °F 52.0 °F 89% 30.01 in 10.0 mi ENE 8.1 mph - 0.00 in   Overcast
2:52 PM 57.0 °F 53.1 °F 87% 30.00 in 10.0 mi ENE 11.5 mph 17.3 mph N/A   Overcast
3:29 PM 57.2 °F 53.6 °F 88% 30.07 in 3.0 mi East 10.4 mph - 0.03 in Rain Rain
3:38 PM 57.2 °F 53.6 °F 88% 30.07 in 2.0 mi East 10.4 mph - 0.07 in Rain Heavy Rain
3:52 PM 57.0 °F 53.1 °F 87% 30.01 in 4.0 mi ENE 10.4 mph - 0.09 in Rain Light Rain
4:52 PM 57.0 °F 54.0 °F 89% 30.01 in 10.0 mi ENE 12.7 mph 19.6 mph 0.02 in   Overcast
5:02 PM 57.2 °F 53.6 °F 88% 30.04 in 10.0 mi ENE 11.5 mph - 0.00 in Rain Light Rain
5:47 PM 57.2 °F 53.6 °F 88% 30.00 in 10.0 mi ENE 11.5 mph - 0.01 in   Overcast
5:52 PM 57.0 °F 53.1 °F 87% 29.96 in 10.0 mi ENE 9.2 mph - 0.01 in   Overcast
6:52 PM 57.0 °F 53.1 °F 87% 29.97 in 10.0 mi ENE 10.4 mph 19.6 mph N/A   Overcast
7:52 PM 57.0 °F 53.1 °F 87% 30.02 in 10.0 mi East 6.9 mph - N/A   Overcast
8:52 PM 57.0 °F 53.1 °F 87% 30.03 in 9.0 mi East 6.9 mph - N/A   Overcast
9:21 PM 57.2 °F 53.6 °F 88% 30.06 in 2.0 mi East 9.2 mph - 0.00 in Rain Light Rain
9:31 PM 55.4 °F 53.6 °F 94% 30.06 in 2.5 mi East 9.2 mph - 0.00 in   Overcast
9:47 PM 55.4 °F 53.6 °F 94% 30.06 in 5.0 mi East 8.1 mph - 0.00 in   Overcast
9:52 PM 55.9 °F 53.1 °F 90% 30.01 in 6.0 mi East 8.1 mph - 0.00 in   Overcast
10:52 PM 55.9 °F 53.1 °F 90% 29.99 in 9.0 mi ENE 10.4 mph - 0.01 in   Overcast
11:19 PM 55.4 °F 53.6 °F 94% 30.04 in 2.0 mi East 9.2 mph - 0.00 in Rain Light Rain
11:36 PM 55.4 °F 51.8 °F 88% 30.03 in 3.0 mi East 8.1 mph - 0.01 in Rain Light Rain
11:52 PM 55.9 °F 53.1 °F 90% 29.98 in 4.0 mi East 9.2 mph - 0.01 in   Overcast